758  
ASUS41 KBOX 290110  
RWRBOX  
 
REGIONAL WEATHER ROUNDUP  
NATIONAL WEATHER SERVICE BOSTON/NORTON MA  
800 PM EST WED FEB 28 2024  
 
NOTE: "FAIR" INDICATES FEW OR NO CLOUDS BELOW 12,000 FEET WITH NO  
SIGNIFICANT WEATHER AND/OR S TO VISIBILITY
.  
 
MAZALL-290200-  
EASTERN MASSACHUSETTS  
 
CITY SKY/WX TMP DP RH WIND PRES REMARKS
 
BOSTON CLOUDY 52 50 93 S23G31 29.47F  
BEVERLY CLOUDY 52 49 89 S17G29 29.45F  
LAWRENCE LGT RAIN 55 51 86 S13G23 29.45F  
BEDFORD LGT RAIN 54 51 90 S14G25 29.42F  
NORWOOD LGT RAIN 54 49 83 S17G26 29.49F  
MARSHFIELD CLOUDY 54 50 87 S20G31 29.52F  
PLYMOUTH LGT RAIN 53 50 89 SW17G35 29.54F  
TAUNTON LGT RAIN 54 50 86 S12G28 29.52F  
NEW BEDFORD LGT RAIN 52 50 93 SW21G38 29.55F  

 
 
MAZALL-290200-  
CAPE COD AND THE ISLANDS  
 
CITY SKY/WX TMP DP RH WIND PRES REMARKS
 
FALMOUTH DRIZZLE 54 52 94 SW35G52 29.59F  
HYANNIS LGT RAIN 50 48 93 S20G37 29.60F FOG  
CHATHAM LGT RAIN 51 29 42 SW17G36 29.65F  
PROVINCETOWN LGT RAIN 50 50 100 SW21G26 29.58F  
NANTUCKET LGT RAIN 49 49 100 S28G39 29.67F FOG  
MARTHAS VNYRD LGT RAIN 50 49 96 S24G32 29.63F FOG  

 
 
MAZALL-290200-  
CENTRAL AND WESTERN MASSACHUSETTS  
 
CITY SKY/WX TMP DP RH WIND PRES REMARKS
 
WORCESTER CLOUDY 52 49 89 SW20G33 29.48F  
FITCHBURG CLOUDY 55 50 83 S7 29.45F  
ORANGE CLOUDY 53 50 89 S15G23 29.45F  
SPRINGFIELD CLOUDY 53 50 90 S20G30 29.45R  
WESTFIELD CLOUDY 53 50 89 S16G24 29.47R  
NORTH ADAMS RAIN 49 42 77 W10G30 29.52R  
PITTSFIELD LGT RAIN 50 46 86 NW20G41 29.48R  

 
 
RIZALL-290200-  
RHODE ISLAND  
 
CITY SKY/WX TMP DP RH WIND PRES REMARKS
 
PROVIDENCE LGT RAIN 51 51 100 S18G29 29.53F  
NEWPORT LGT RAIN 49 48 97 S15G32 29.56F  
BLOCK ISLAND CLOUDY 48 47 96 S22G31 29.55F FOG  
SMITHFIELD LGT RAIN 51 51 100 SW9G17 29.51F  
WESTERLY CLOUDY 50 47 89 SW21G36 29.59F  

 
 
CTZALL-290200-  
CONNECTICUT  
 
CITY SKY/WX TMP DP RH WIND PRES REMARKS
 
BRADLEY INTL CLOUDY 52 49 89 S16G25 29.50R  
HARTFORD CLOUDY 53 50 89 S16G26 29.51R  
PLAINVILLE CLOUDY 51 51 100 S12 29.50S  
BRIDGEPORT MOCLDY 48 45 89 SW12 29.55R  
DANBURY MOCLDY 55 50 83 S12G18 29.52F  
GROTON MOCLDY 50 49 96 S29G37 29.55F  
NEW HAVEN CLOUDY 49 47 93 VRB6 29.56R FOG  
CHESTER CLOUDY 50 50 100 SW15G25 29.56R FOG  
MERIDEN CLOUDY 50 47 89 S10G18 29.54R  
WILLIMANTIC CLOUDY 52 50 93 S16G22 29.54F  
OXFORD CLOUDY 50 50 100 SW10 29.53S FOG  

 
 
MEZ002-015-021-024-NHZ003-005-008-011-012-014-VTZ005-008-290200-  
NORTHERN NEW ENGLAND  
 
CITY SKY/WX TMP DP RH WIND PRES REMARKS
 
PORTLAND ME LGT RAIN 46 46 100 S16G29 29.43F FOG  
BANGOR ME LGT RAIN 49 47 93 S22G45 29.45F  
CONCORD NH LGT RAIN 54 52 93 S12 29.39F  
MANCHESTER NH CLOUDY 56 52 86 S16G24 29.39F  
NASHUA NH LGT RAIN 55 32 41 S9 29.41F  
PORTSMOUTH NH LGT RAIN 55 52 89 S15 29.40F  
JAFFREY NH LGT RAIN 54 50 86 S14G21 29.41F  
KEENE NH LGT RAIN 53 52 96 SW15G22 29.40F  
BURLINGTON VT LGT RAIN 45 36 70 W15G26 29.39R  
MT. WASHINGTON FOG 36 36 100 SW40G56 N/A VSB 0 WCI 21  

 
 
NYZ052-076-290200-  
EASTERN NEW YORK  
 
CITY SKY/WX TMP DP RH WIND PRES REMARKS
 
ALBANY LGTSLEET 42 35 76 W28G47 29.55R WCI 32  
NEW YORK CITY MOCLDY 53 49 86 S12 29.54S  

 
 
ANZALL-290200-  
MARINE OBSERVATIONS  
 
STATION/POSITION TIME TEMP WIND PRES VSBY WAVE
 
AIR SEA DIR/SP/G HT/PER  
(UTC) (F) (DEG/KT/KT) (MB) (MI) (FT/S)  
BOSTON BUOY 0050 49 40 190/ 19/ 25 999.4F 5/ 5  
BUZZARDS BAY 0000 50 210/ 36/ 41 1003.3F  
NANTUCKET SOUND 0050 48 38 200/ 25/ 31 1002.9F 4/ 4  
MASS BAY-STELLWA 2304 46 40 180/ 17/ 23 1001.1R 1 7/8 6/ 6  
ISLE OF SHOALS 0000 49 180/ 30/ 33 997.6F  
S OF BLOCK IS 0056 42 N/A 13/11  

 
   
.....................KEY......................
 
 
SKY/WX - SKY CONDITION/PRESENT WEATHER  
TMP - TEMPERATURE IN FAHRENHEIT  
DWPT - DEWPOINT IN FAHRENHEIT  
RH - RELATIVE HUMIDITY IN PERCENT  
WIND - DIRECTION AND SPEED IN MPH  
PRES - MEAN SEA LEVEL PRESSURE IN INCHES OF HG  
WCI - WIND CHILL INDEX  
VSB - VISIBILITY IN MILES  
HX - HEAT INDEX  
TC - TEMPERATURE IN CELSIUS  
VRB - VARIABLE WIND DIRECTION  
N/A - NOT AVAILABLE  
 
 
CLICK HERE TO GO TO PREVIOUS BULLETINS.

The Nexlab MA Page
The Nexlab RI Page
The Nexlab NH Page
The Nexlab CT Page Main Text Page